^^
Station Historical Data
Daily Summary for December 15, 2017 Units:  Both    English   Metric
« Previous Day
Next Day »
Daily Weekly Monthly Yearly Custom
  High: Low: Average:
Temperature: TemperatureF °F /  -17.8 °C 61.5 °F /  16.4 °C 78.1 °F /  25.6 °C
Dew Point: DewpointF °F /  -17.8 °C 12.7 °F /  -10.7 °C 30.6 °F /  -0.8 °C
Humidity: Humidity% 6% 21%
Wind Speed: WindSpeedMPHmph /  0km/h - 1.9mph /  3.1km/h
Wind Gust: WindSpeedGustMPHmph /  0km/h - -
Wind- - SW
Pressure: PressureIn in /  0 hPa 29.63 in /  1003.3 hPa -
Precipitation: 0.00 in /  0 mm    
Historical Graphs
 
 
Tabular Data for December 15, 2017
Time Temperature Dew Point Pressure Wind Wind Speed Wind Gust Humidity Rainfall Rate (Hourly) solar Conditions
TemperatureF °F /  -17.8 °C DewpointF °F /  -17.8 °C PressureInin /  0hPa Calm     Humidity% HourlyPrecipInin /  0mm SolarRadiationWatts/m^2 W/m2 Conditions
00:02 69.6 °F /  20.9 °C 36.0 °F /  2.2 °C 29.73in /  1006.7hPa WSW 0.9mph /  1.4km/h 4.0mph /  6.4km/h 29% 0.00in /  0mm 0.0 W/m2
00:07 69.4 °F /  20.8 °C 35.8 °F /  2.1 °C 29.73in /  1006.7hPa Calm   1.0mph /  1.6km/h 29% 0.00in /  0mm 0.0 W/m2
00:12 69.3 °F /  20.7 °C 36.5 °F /  2.5 °C 29.73in /  1006.7hPa Calm     30% 0.00in /  0mm 0.0 W/m2
00:17 69.3 °F /  20.7 °C 36.5 °F /  2.5 °C 29.73in /  1006.7hPa Calm   1.0mph /  1.6km/h 30% 0.00in /  0mm 0.0 W/m2
00:23 69.1 °F /  20.6 °C 36.3 °F /  2.4 °C 29.73in /  1006.7hPa Calm   1.0mph /  1.6km/h 30% 0.00in /  0mm 0.0 W/m2
00:28 68.7 °F /  20.4 °C 36.0 °F /  2.2 °C 29.74in /  1007hPa Calm   1.0mph /  1.6km/h 30% 0.00in /  0mm 0.0 W/m2
00:33 68.5 °F /  20.3 °C 36.0 °F /  2.2 °C 29.74in /  1007hPa Calm   3.0mph /  4.8km/h 30% 0.00in /  0mm 0.0 W/m2
00:39 68.4 °F /  20.2 °C 36.5 °F /  2.5 °C 29.73in /  1006.7hPa West 0.9mph /  1.4km/h 3.0mph /  4.8km/h 31% 0.00in /  0mm 0.0 W/m2
00:44 68.4 °F /  20.2 °C 36.5 °F /  2.5 °C 29.73in /  1006.7hPa Calm   1.0mph /  1.6km/h 31% 0.00in /  0mm 0.0 W/m2
00:49 68.4 °F /  20.2 °C 36.5 °F /  2.5 °C 29.73in /  1006.7hPa Calm   3.0mph /  4.8km/h 31% 0.00in /  0mm 0.0 W/m2
00:55 68.2 °F /  20.1 °C 36.3 °F /  2.4 °C 29.73in /  1006.7hPa West 2.0mph /  3.2km/h 4.0mph /  6.4km/h 31% 0.00in /  0mm 0.0 W/m2
01:00 68.0 °F /  20 °C 36.3 °F /  2.4 °C 29.73in /  1006.7hPa West 2.9mph /  4.7km/h 3.0mph /  4.8km/h 31% 0.00in /  0mm 0.0 W/m2
01:05 67.8 °F /  19.9 °C 36.1 °F /  2.3 °C 29.73in /  1006.7hPa Calm   1.0mph /  1.6km/h 31% 0.00in /  0mm 0.0 W/m2
01:10 67.6 °F /  19.8 °C 36.7 °F /  2.6 °C 29.72in /  1006.3hPa WSW 0.9mph /  1.4km/h 5.0mph /  8km/h 32% 0.00in /  0mm 0.0 W/m2
01:15 67.5 °F /  19.7 °C 36.5 °F /  2.5 °C 29.72in /  1006.3hPa West 0.9mph /  1.4km/h 1.0mph /  1.6km/h 32% 0.00in /  0mm 0.0 W/m2
01:21 67.5 °F /  19.7 °C 36.5 °F /  2.5 °C 29.72in /  1006.3hPa Calm   2.0mph /  3.2km/h 32% 0.00in /  0mm 0.0 W/m2
01:26 67.3 °F /  19.6 °C 36.5 °F /  2.5 °C 29.72in /  1006.3hPa WSW 2.0mph /  3.2km/h 2.0mph /  3.2km/h 32% 0.00in /  0mm 0.0 W/m2
01:31 67.3 °F /  19.6 °C 36.5 °F /  2.5 °C 29.72in /  1006.3hPa Calm   2.0mph /  3.2km/h 32% 0.00in /  0mm 0.0 W/m2
01:37 66.9 °F /  19.4 °C 36.1 °F /  2.3 °C 29.72in /  1006.3hPa Calm   1.0mph /  1.6km/h 32% 0.00in /  0mm 0.0 W/m2
01:42 66.9 °F /  19.4 °C 36.9 °F /  2.7 °C 29.72in /  1006.3hPa WSW 0.9mph /  1.4km/h 1.0mph /  1.6km/h 33% 0.00in /  0mm 0.0 W/m2
01:47 66.7 °F /  19.3 °C 36.7 °F /  2.6 °C 29.71in /  1006hPa Calm   2.0mph /  3.2km/h 33% 0.00in /  0mm 0.0 W/m2
01:53 66.7 °F /  19.3 °C 36.7 °F /  2.6 °C 29.71in /  1006hPa Calm   2.0mph /  3.2km/h 33% 0.00in /  0mm 0.0 W/m2
01:58 66.6 °F /  19.2 °C 36.5 °F /  2.5 °C 29.70in /  1005.6hPa Calm   1.0mph /  1.6km/h 33% 0.00in /  0mm 0.0 W/m2
02:03 66.4 °F /  19.1 °C 36.3 °F /  2.4 °C 29.70in /  1005.6hPa Calm   3.0mph /  4.8km/h 33% 0.00in /  0mm 0.0 W/m2
02:08 66.4 °F /  19.1 °C 36.3 °F /  2.4 °C 29.70in /  1005.6hPa Calm   1.0mph /  1.6km/h 33% 0.00in /  0mm 0.0 W/m2
02:13 66.2 °F /  19 °C 37.0 °F /  2.8 °C 29.70in /  1005.6hPa Calm   1.0mph /  1.6km/h 34% 0.00in /  0mm 0.0 W/m2
02:18 66.0 °F /  18.9 °C 36.9 °F /  2.7 °C 29.70in /  1005.6hPa Calm     34% 0.00in /  0mm 0.0 W/m2
02:24 65.8 °F /  18.8 °C 36.7 °F /  2.6 °C 29.70in /  1005.6hPa Calm   1.0mph /  1.6km/h 34% 0.00in /  0mm 0.0 W/m2
02:29 65.7 °F /  18.7 °C 37.2 °F /  2.9 °C 29.70in /  1005.6hPa Calm   2.0mph /  3.2km/h 35% 0.00in /  0mm 0.0 W/m2
02:34 65.5 °F /  18.6 °C 37.0 °F /  2.8 °C 29.70in /  1005.6hPa Calm   1.0mph /  1.6km/h 35% 0.00in /  0mm 0.0 W/m2
02:39 65.1 °F /  18.4 °C 36.9 °F /  2.7 °C 29.70in /  1005.6hPa Calm   1.0mph /  1.6km/h 35% 0.00in /  0mm 0.0 W/m2
02:45 64.8 °F /  18.2 °C 36.5 °F /  2.5 °C 29.70in /  1005.6hPa Calm   1.0mph /  1.6km/h 35% 0.00in /  0mm 0.0 W/m2
02:50 64.6 °F /  18.1 °C 36.3 °F /  2.4 °C 29.69in /  1005.3hPa Calm   1.0mph /  1.6km/h 35% 0.00in /  0mm 0.0 W/m2
02:55 64.4 °F /  18 °C 36.9 °F /  2.7 °C 29.69in /  1005.3hPa Calm   1.0mph /  1.6km/h 36% 0.00in /  0mm 0.0 W/m2
03:00 64.2 °F /  17.9 °C 36.7 °F /  2.6 °C 29.70in /  1005.6hPa Calm     36% 0.00in /  0mm 0.0 W/m2
03:06 64.0 °F /  17.8 °C 36.5 °F /  2.5 °C 29.70in /  1005.6hPa Calm     36% 0.00in /  0mm 0.0 W/m2
03:11 63.9 °F /  17.7 °C 36.3 °F /  2.4 °C 29.70in /  1005.6hPa Calm   1.0mph /  1.6km/h 36% 0.00in /  0mm 0.0 W/m2
03:16 63.9 °F /  17.7 °C 37.0 °F /  2.8 °C 29.70in /  1005.6hPa Calm     37% 0.00in /  0mm 0.0 W/m2
03:21 63.7 °F /  17.6 °C 36.9 °F /  2.7 °C 29.70in /  1005.6hPa Calm   1.0mph /  1.6km/h 37% 0.00in /  0mm 0.0 W/m2
03:26 63.3 °F /  17.4 °C 36.7 °F /  2.6 °C 29.70in /  1005.6hPa Calm     37% 0.00in /  0mm 0.0 W/m2
03:31 63.3 °F /  17.4 °C 37.2 °F /  2.9 °C 29.70in /  1005.6hPa Calm   1.0mph /  1.6km/h 38% 0.00in /  0mm 0.0 W/m2
03:36 63.1 °F /  17.3 °C 37.0 °F /  2.8 °C 29.70in /  1005.6hPa Calm   1.0mph /  1.6km/h 38% 0.00in /  0mm 0.0 W/m2
03:41 63.1 °F /  17.3 °C 37.0 °F /  2.8 °C 29.70in /  1005.6hPa Calm     38% 0.00in /  0mm 0.0 W/m2
03:46 63.1 °F /  17.3 °C 37.0 °F /  2.8 °C 29.70in /  1005.6hPa Calm   1.0mph /  1.6km/h 38% 0.00in /  0mm 0.0 W/m2
03:52 63.0 °F /  17.2 °C 37.0 °F /  2.8 °C 29.70in /  1005.6hPa Calm   2.0mph /  3.2km/h 38% 0.00in /  0mm 0.0 W/m2
03:58 63.0 °F /  17.2 °C 37.0 °F /  2.8 °C 29.70in /  1005.6hPa Calm     38% 0.00in /  0mm 0.0 W/m2
04:03 62.8 °F /  17.1 °C 37.4 °F /  3 °C 29.70in /  1005.6hPa Calm   1.0mph /  1.6km/h 39% 0.00in /  0mm 0.0 W/m2
04:08 62.8 °F /  17.1 °C 36.9 °F /  2.7 °C 29.70in /  1005.6hPa Calm   2.0mph /  3.2km/h 38% 0.00in /  0mm 0.0 W/m2
04:13 62.6 °F /  17 °C 36.7 °F /  2.6 °C 29.70in /  1005.6hPa Calm     38% 0.00in /  0mm 0.0 W/m2
04:18 62.4 °F /  16.9 °C 36.5 °F /  2.5 °C 29.70in /  1005.6hPa Calm     38% 0.00in /  0mm 0.0 W/m2
04:23 62.2 °F /  16.8 °C 37.0 °F /  2.8 °C 29.70in /  1005.6hPa Calm     39% 0.00in /  0mm 0.0 W/m2
04:28 62.2 °F /  16.8 °C 37.0 °F /  2.8 °C 29.70in /  1005.6hPa Calm   1.0mph /  1.6km/h 39% 0.00in /  0mm 0.0 W/m2
04:33 62.1 °F /  16.7 °C 37.4 °F /  3 °C 29.70in /  1005.6hPa Calm   2.0mph /  3.2km/h 40% 0.00in /  0mm 0.0 W/m2
04:38 62.1 °F /  16.7 °C 36.9 °F /  2.7 °C 29.70in /  1005.6hPa Calm   2.0mph /  3.2km/h 39% 0.00in /  0mm 0.0 W/m2
04:44 61.9 °F /  16.6 °C 37.2 °F /  2.9 °C 29.70in /  1005.6hPa Calm   2.0mph /  3.2km/h 40% 0.00in /  0mm 0.0 W/m2
04:50 61.7 °F /  16.5 °C 37.2 °F /  2.9 °C 29.70in /  1005.6hPa Calm     40% 0.00in /  0mm 0.0 W/m2
04:55 61.5 °F /  16.4 °C 37.0 °F /  2.8 °C 29.70in /  1005.6hPa Calm     40% 0.00in /  0mm 0.0 W/m2
05:00 61.5 °F /  16.4 °C 37.0 °F /  2.8 °C 29.70in /  1005.6hPa Calm   1.0mph /  1.6km/h 40% 0.00in /  0mm 0.0 W/m2
05:05 61.5 °F /  16.4 °C 37.0 °F /  2.8 °C 29.70in /  1005.6hPa Calm   2.0mph /  3.2km/h 40% 0.00in /  0mm 0.0 W/m2
05:13 61.5 °F /  16.4 °C 37.0 °F /  2.8 °C 29.70in /  1005.6hPa Calm     40% 0.00in /  0mm 0.0 W/m2
05:18 61.5 °F /  16.4 °C 37.0 °F /  2.8 °C 29.71in /  1006hPa Calm     40% 0.00in /  0mm 0.0 W/m2
05:23 61.5 °F /  16.4 °C 37.0 °F /  2.8 °C 29.70in /  1005.6hPa ESE 0.9mph /  1.4km/h 3.0mph /  4.8km/h 40% 0.00in /  0mm 0.0 W/m2
05:28 61.9 °F /  16.6 °C 37.2 °F /  2.9 °C 29.71in /  1006hPa Calm   1.0mph /  1.6km/h 40% 0.00in /  0mm 0.0 W/m2
05:34 61.9 °F /  16.6 °C 37.2 °F /  2.9 °C 29.71in /  1006hPa Calm     40% 0.00in /  0mm 0.0 W/m2
05:39 62.1 °F /  16.7 °C 37.4 °F /  3 °C 29.72in /  1006.3hPa East 2.9mph /  4.7km/h 3.0mph /  4.8km/h 40% 0.00in /  0mm 0.0 W/m2
05:44 62.2 °F /  16.8 °C 37.6 °F /  3.1 °C 29.71in /  1006hPa Calm   2.0mph /  3.2km/h 40% 0.00in /  0mm 0.0 W/m2
05:49 62.2 °F /  16.8 °C 37.6 °F /  3.1 °C 29.72in /  1006.3hPa East 2.0mph /  3.2km/h 3.0mph /  4.8km/h 40% 0.00in /  0mm 0.0 W/m2
05:54 62.2 °F /  16.8 °C 37.6 °F /  3.1 °C 29.72in /  1006.3hPa NE 0.9mph /  1.4km/h 3.0mph /  4.8km/h 40% 0.00in /  0mm 0.0 W/m2
06:00 62.4 °F /  16.9 °C 37.2 °F /  2.9 °C 29.72in /  1006.3hPa ESE 0.9mph /  1.4km/h 3.0mph /  4.8km/h 39% 0.00in /  0mm 0.0 W/m2
06:05 62.4 °F /  16.9 °C 37.2 °F /  2.9 °C 29.72in /  1006.3hPa Calm   1.0mph /  1.6km/h 39% 0.00in /  0mm 0.0 W/m2
06:10 62.4 °F /  16.9 °C 37.2 °F /  2.9 °C 29.72in /  1006.3hPa Calm   1.0mph /  1.6km/h 39% 0.00in /  0mm 7.0 W/m2
06:16 62.4 °F /  16.9 °C 37.2 °F /  2.9 °C 29.72in /  1006.3hPa Calm   1.0mph /  1.6km/h 39% 0.00in /  0mm 9.0 W/m2
06:21 62.4 °F /  16.9 °C 37.8 °F /  3.2 °C 29.72in /  1006.3hPa Calm     40% 0.00in /  0mm 12.0 W/m2
06:26 62.4 °F /  16.9 °C 37.8 °F /  3.2 °C 29.72in /  1006.3hPa Calm   1.0mph /  1.6km/h 40% 0.00in /  0mm 14.0 W/m2
06:31 62.4 °F /  16.9 °C 37.8 °F /  3.2 °C 29.72in /  1006.3hPa Calm     40% 0.00in /  0mm 18.0 W/m2
06:36 62.4 °F /  16.9 °C 37.8 °F /  3.2 °C 29.72in /  1006.3hPa Calm     40% 0.00in /  0mm 26.0 W/m2
06:41 62.6 °F /  17 °C 37.9 °F /  3.3 °C 29.73in /  1006.7hPa Calm     40% 0.00in /  0mm 28.0 W/m2
06:46 62.8 °F /  17.1 °C 38.7 °F /  3.7 °C 29.73in /  1006.7hPa Calm   1.0mph /  1.6km/h 41% 0.00in /  0mm 26.0 W/m2
06:52 62.8 °F /  17.1 °C 38.1 °F /  3.4 °C 29.73in /  1006.7hPa East 0.9mph /  1.4km/h 3.0mph /  4.8km/h 40% 0.00in /  0mm 25.0 W/m2
06:57 62.8 °F /  17.1 °C 38.1 °F /  3.4 °C 29.73in /  1006.7hPa East 0.9mph /  1.4km/h 3.0mph /  4.8km/h 40% 0.00in /  0mm 26.0 W/m2
07:02 63.0 °F /  17.2 °C 38.3 °F /  3.5 °C 29.74in /  1007hPa East 0.9mph /  1.4km/h 5.0mph /  8km/h 40% 0.00in /  0mm 23.0 W/m2
07:07 63.1 °F /  17.3 °C 39.0 °F /  3.9 °C 29.74in /  1007hPa Calm   2.0mph /  3.2km/h 41% 0.00in /  0mm 30.0 W/m2
07:12 63.1 °F /  17.3 °C 38.5 °F /  3.6 °C 29.74in /  1007hPa Calm   3.0mph /  4.8km/h 40% 0.00in /  0mm 32.0 W/m2
07:17 63.5 °F /  17.5 °C 38.7 °F /  3.7 °C 29.75in /  1007.3hPa ENE 0.9mph /  1.4km/h 1.0mph /  1.6km/h 40% 0.00in /  0mm 33.0 W/m2
07:22 63.9 °F /  17.7 °C 39.0 °F /  3.9 °C 29.75in /  1007.3hPa Calm   1.0mph /  1.6km/h 40% 0.00in /  0mm 35.0 W/m2
07:27 64.2 °F /  17.9 °C 39.4 °F /  4.1 °C 29.74in /  1007hPa Calm   1.0mph /  1.6km/h 40% 0.00in /  0mm 40.0 W/m2
07:32 64.8 °F /  18.2 °C 38.5 °F /  3.6 °C 29.75in /  1007.3hPa East 0.9mph /  1.4km/h 3.0mph /  4.8km/h 38% 0.00in /  0mm 95.0 W/m2
07:38 65.5 °F /  18.6 °C 38.5 °F /  3.6 °C 29.74in /  1007hPa Calm   1.0mph /  1.6km/h 37% 0.00in /  0mm 97.0 W/m2
07:43 66.2 °F /  19 °C 39.2 °F /  4 °C 29.74in /  1007hPa ESE 0.9mph /  1.4km/h 1.0mph /  1.6km/h 37% 0.00in /  0mm 104.0 W/m2
07:48 67.3 °F /  19.6 °C 38.7 °F /  3.7 °C 29.75in /  1007.3hPa Calm     35% 0.00in /  0mm 380.0 W/m2
07:53 68.2 °F /  20.1 °C 38.7 °F /  3.7 °C 29.75in /  1007.3hPa Calm   1.0mph /  1.6km/h 34% 0.00in /  0mm 383.0 W/m2
07:59 69.6 °F /  20.9 °C 38.5 °F /  3.6 °C 29.74in /  1007hPa Calm   2.0mph /  3.2km/h 32% 0.00in /  0mm 406.0 W/m2
08:04 70.7 °F /  21.5 °C 38.7 °F /  3.7 °C 29.74in /  1007hPa Calm   2.0mph /  3.2km/h 31% 0.00in /  0mm 424.0 W/m2
08:09 71.8 °F /  22.1 °C 38.7 °F /  3.7 °C 29.74in /  1007hPa Calm   2.0mph /  3.2km/h 30% 0.00in /  0mm 448.0 W/m2
08:14 72.9 °F /  22.7 °C 40.5 °F /  4.7 °C 29.74in /  1007hPa Calm   3.0mph /  4.8km/h 31% 0.00in /  0mm 468.0 W/m2
08:19 73.8 °F /  23.2 °C 42.1 °F /  5.6 °C 29.73in /  1006.7hPa Calm   7.0mph /  11.3km/h 32% 0.00in /  0mm 490.0 W/m2
08:24 74.7 °F /  23.7 °C 42.1 °F /  5.6 °C 29.74in /  1007hPa East 0.9mph /  1.4km/h 6.0mph /  9.7km/h 31% 0.00in /  0mm 512.0 W/m2
08:30 75.7 °F /  24.3 °C 43.0 °F /  6.1 °C 29.73in /  1006.7hPa NE 2.0mph /  3.2km/h 5.0mph /  8km/h 31% 0.00in /  0mm 529.0 W/m2
08:35 76.6 °F /  24.8 °C 43.7 °F /  6.5 °C 29.73in /  1006.7hPa Calm   6.0mph /  9.7km/h 31% 0.00in /  0mm 548.0 W/m2
08:40 77.5 °F /  25.3 °C 43.7 °F /  6.5 °C 29.73in /  1006.7hPa NE 2.0mph /  3.2km/h 6.0mph /  9.7km/h 30% 0.00in /  0mm 573.0 W/m2
08:45 78.3 °F /  25.7 °C 44.2 °F /  6.8 °C 29.73in /  1006.7hPa NNE 4.9mph /  7.9km/h 8.0mph /  12.9km/h 30% 0.00in /  0mm 591.0 W/m2
08:50 79.0 °F /  26.1 °C 44.1 °F /  6.7 °C 29.73in /  1006.7hPa ENE 4.0mph /  6.4km/h 9.0mph /  14.5km/h 29% 0.00in /  0mm 612.0 W/m2
08:55 79.5 °F /  26.4 °C 43.5 °F /  6.4 °C 29.73in /  1006.7hPa North 4.9mph /  7.9km/h 9.0mph /  14.5km/h 28% 0.00in /  0mm 631.0 W/m2
08:56 79.5 °F /  26.4 °C 43.5 °F /  6.4 °C 29.73in /  1006.7hPa North 4.9mph /  7.9km/h 9.0mph /  14.5km/h 28% 0.00in /  0mm 636.0 W/m2
09:01 80.1 °F /  26.7 °C 44.1 °F /  6.7 °C 29.73in /  1006.7hPa ENE 2.9mph /  4.7km/h 7.0mph /  11.3km/h 28% 0.00in /  0mm 656.0 W/m2
09:06 80.8 °F /  27.1 °C 43.7 °F /  6.5 °C 29.72in /  1006.3hPa SE 0.9mph /  1.4km/h 5.0mph /  8km/h 27% 0.00in /  0mm 668.0 W/m2
09:11 81.1 °F /  27.3 °C 44.1 °F /  6.7 °C 29.73in /  1006.7hPa NE 2.9mph /  4.7km/h 7.0mph /  11.3km/h 27% 0.00in /  0mm 680.0 W/m2
09:16 81.7 °F /  27.6 °C 43.5 °F /  6.4 °C 29.72in /  1006.3hPa NE 0.9mph /  1.4km/h 5.0mph /  8km/h 26% 0.00in /  0mm 712.0 W/m2
09:22 82.2 °F /  27.9 °C 43.9 °F /  6.6 °C 29.72in /  1006.3hPa NE 4.0mph /  6.4km/h 7.0mph /  11.3km/h 26% 0.00in /  0mm 729.0 W/m2
09:27 82.4 °F /  28 °C 41.9 °F /  5.5 °C 29.72in /  1006.3hPa Calm   5.0mph /  8km/h 24% 0.00in /  0mm 749.0 W/m2
09:32 82.8 °F /  28.2 °C 43.3 °F /  6.3 °C 29.72in /  1006.3hPa NE 0.9mph /  1.4km/h 4.0mph /  6.4km/h 25% 0.00in /  0mm 759.0 W/m2
09:37 83.5 °F /  28.6 °C 43.0 °F /  6.1 °C 29.72in /  1006.3hPa NNW 4.9mph /  7.9km/h 6.0mph /  9.7km/h 24% 0.00in /  0mm 770.0 W/m2
09:42 83.8 °F /  28.8 °C 42.1 °F /  5.6 °C 29.72in /  1006.3hPa West 0.9mph /  1.4km/h 5.0mph /  8km/h 23% 0.00in /  0mm 773.0 W/m2
09:47 84.2 °F /  29 °C 42.4 °F /  5.8 °C 29.72in /  1006.3hPa WSW 2.9mph /  4.7km/h 6.0mph /  9.7km/h 23% 0.00in /  0mm 795.0 W/m2
09:52 84.2 °F /  29 °C 42.4 °F /  5.8 °C 29.71in /  1006hPa West 2.0mph /  3.2km/h 5.0mph /  8km/h 23% 0.00in /  0mm 817.0 W/m2
09:57 84.6 °F /  29.2 °C 41.5 °F /  5.3 °C 29.72in /  1006.3hPa WSW 0.9mph /  1.4km/h 8.0mph /  12.9km/h 22% 0.00in /  0mm 830.0 W/m2
10:02 84.9 °F /  29.4 °C 40.6 °F /  4.8 °C 29.72in /  1006.3hPa NNW 2.0mph /  3.2km/h 5.0mph /  8km/h 21% 0.00in /  0mm 847.0 W/m2
10:07 85.3 °F /  29.6 °C 42.1 °F /  5.6 °C 29.71in /  1006hPa WSW 0.9mph /  1.4km/h 3.0mph /  4.8km/h 22% 0.00in /  0mm 856.0 W/m2
10:13 85.3 °F /  29.6 °C 41.0 °F /  5 °C 29.72in /  1006.3hPa West 2.0mph /  3.2km/h 7.0mph /  11.3km/h 21% 0.00in /  0mm 872.0 W/m2
10:18 85.5 °F /  29.7 °C 39.7 °F /  4.3 °C 29.72in /  1006.3hPa WNW 6.9mph /  11.1km/h 11.0mph /  17.7km/h 20% 0.00in /  0mm 891.0 W/m2
10:24 86.0 °F /  30 °C 39.0 °F /  3.9 °C 29.71in /  1006hPa NNW 0.9mph /  1.4km/h 4.0mph /  6.4km/h 19% 0.00in /  0mm 854.0 W/m2
10:29 86.4 °F /  30.2 °C 39.2 °F /  4 °C 29.72in /  1006.3hPa NNW 4.9mph /  7.9km/h 5.0mph /  8km/h 19% 0.00in /  0mm 807.0 W/m2
10:34 87.1 °F /  30.6 °C 37.0 °F /  2.8 °C 29.72in /  1006.3hPa North 2.0mph /  3.2km/h 6.0mph /  9.7km/h 17% 0.00in /  0mm 963.0 W/m2
10:39 87.4 °F /  30.8 °C 35.8 °F /  2.1 °C 29.71in /  1006hPa NNE 4.9mph /  7.9km/h 7.0mph /  11.3km/h 16% 0.00in /  0mm 868.0 W/m2
10:49 87.3 °F /  30.7 °C 35.6 °F /  2 °C 29.71in /  1006hPa Calm   7.0mph /  11.3km/h 16% 0.00in /  0mm 603.0 W/m2
10:54 87.3 °F /  30.7 °C 35.6 °F /  2 °C 29.71in /  1006hPa NNW 4.0mph /  6.4km/h 8.0mph /  12.9km/h 16% 0.00in /  0mm 589.0 W/m2
10:59 87.3 °F /  30.7 °C 32.2 °F /  0.1 °C 29.72in /  1006.3hPa NNW 4.0mph /  6.4km/h 7.0mph /  11.3km/h 14% 0.00in /  0mm 1002.0 W/m2
11:05 87.6 °F /  30.9 °C 36.0 °F /  2.2 °C 29.72in /  1006.3hPa WNW 2.9mph /  4.7km/h 7.0mph /  11.3km/h 16% 0.00in /  0mm 1204.0 W/m2
11:10 88.3 °F /  31.3 °C 31.3 °F /  -0.4 °C 29.72in /  1006.3hPa NNE 4.9mph /  7.9km/h 9.0mph /  14.5km/h 13% 0.00in /  0mm 1111.0 W/m2
11:15 88.3 °F /  31.3 °C 29.3 °F /  -1.5 °C 29.71in /  1006hPa NNW 4.0mph /  6.4km/h 8.0mph /  12.9km/h 12% 0.00in /  0mm 916.0 W/m2
11:20 88.5 °F /  31.4 °C 33.3 °F /  0.7 °C 29.71in /  1006hPa West 6.0mph /  9.7km/h 9.0mph /  14.5km/h 14% 0.00in /  0mm 956.0 W/m2
11:25 88.9 °F /  31.6 °C 33.6 °F /  0.9 °C 29.72in /  1006.3hPa Calm   8.0mph /  12.9km/h 14% 0.00in /  0mm 846.0 W/m2
11:30 89.1 °F /  31.7 °C 31.8 °F /  -0.1 °C 29.72in /  1006.3hPa NNW 4.0mph /  6.4km/h 8.0mph /  12.9km/h 13% 0.00in /  0mm 522.0 W/m2
11:35 89.4 °F /  31.9 °C 32.2 °F /  0.1 °C 29.72in /  1006.3hPa WNW 2.0mph /  3.2km/h 11.0mph /  17.7km/h 13% 0.00in /  0mm 1178.0 W/m2
11:40 90.0 °F /  32.2 °C 32.5 °F /  0.3 °C 29.71in /  1006hPa WNW 8.1mph /  13km/h 8.1mph /  13km/h 13% 0.00in /  0mm 1178.0 W/m2
11:45 90.1 °F /  32.3 °C 30.7 °F /  -0.7 °C 29.72in /  1006.3hPa WNW 6.9mph /  11.1km/h 7.0mph /  11.3km/h 12% 0.00in /  0mm 1202.0 W/m2
11:50 90.1 °F /  32.3 °C 28.6 °F /  -1.9 °C 29.71in /  1006hPa North 4.9mph /  7.9km/h 11.0mph /  17.7km/h 11% 0.00in /  0mm 1201.0 W/m2
11:55 90.3 °F /  32.4 °C 32.9 °F /  0.5 °C 29.71in /  1006hPa NNW 4.9mph /  7.9km/h 6.0mph /  9.7km/h 13% 0.00in /  0mm 1201.0 W/m2
12:01 90.5 °F /  32.5 °C 28.8 °F /  -1.8 °C 29.71in /  1006hPa NNW 4.0mph /  6.4km/h 7.0mph /  11.3km/h 11% 0.00in /  0mm 1116.0 W/m2
12:06 90.3 °F /  32.4 °C 28.8 °F /  -1.8 °C 29.71in /  1006hPa NNW 4.0mph /  6.4km/h 8.0mph /  12.9km/h 11% 0.00in /  0mm 1041.0 W/m2
12:11 90.7 °F /  32.6 °C 28.9 °F /  -1.7 °C 29.71in /  1006hPa North 2.0mph /  3.2km/h 9.0mph /  14.5km/h 11% 0.00in /  0mm 1139.0 W/m2
12:16 91.2 °F /  32.9 °C 29.3 °F /  -1.5 °C 29.71in /  1006hPa West 0.9mph /  1.4km/h 7.0mph /  11.3km/h 11% 0.00in /  0mm 1088.0 W/m2
12:21 91.4 °F /  33 °C 27.1 °F /  -2.7 °C 29.71in /  1006hPa North 2.9mph /  4.7km/h 9.0mph /  14.5km/h 10% 0.00in /  0mm 1146.0 W/m2
12:26 91.4 °F /  33 °C 27.1 °F /  -2.7 °C 29.71in /  1006hPa SSW 2.9mph /  4.7km/h 11.0mph /  17.7km/h 10% 0.00in /  0mm 1262.0 W/m2
12:31 91.6 °F /  33.1 °C 27.3 °F /  -2.6 °C 29.71in /  1006hPa NW 4.0mph /  6.4km/h 10.0mph /  16.1km/h 10% 0.00in /  0mm 1315.0 W/m2
12:36 91.2 °F /  32.9 °C 24.4 °F /  -4.2 °C 29.70in /  1005.6hPa East 2.0mph /  3.2km/h 9.0mph /  14.5km/h 9% 0.00in /  0mm 647.0 W/m2
12:41 90.9 °F /  32.7 °C 26.8 °F /  -2.9 °C 29.70in /  1005.6hPa West 2.0mph /  3.2km/h 11.0mph /  17.7km/h 10% 0.00in /  0mm 1005.0 W/m2
12:46 91.2 °F /  32.9 °C 27.1 °F /  -2.7 °C 29.70in /  1005.6hPa NNW 2.9mph /  4.7km/h 10.0mph /  16.1km/h 10% 0.00in /  0mm 851.0 W/m2
12:52 90.9 °F /  32.7 °C 24.3 °F /  -4.3 °C 29.70in /  1005.6hPa NNW 2.0mph /  3.2km/h 16.0mph /  25.7km/h 9% 0.00in /  0mm 1120.0 W/m2
12:57 90.9 °F /  32.7 °C 26.8 °F /  -2.9 °C 29.70in /  1005.6hPa WNW 0.9mph /  1.4km/h 5.0mph /  8km/h 10% 0.00in /  0mm 1192.0 W/m2
13:02 91.9 °F /  33.3 °C 25.0 °F /  -3.9 °C 29.69in /  1005.3hPa NNW 4.0mph /  6.4km/h 13.0mph /  20.9km/h 9% 0.00in /  0mm 1120.0 W/m2
13:07 91.9 °F /  33.3 °C 25.0 °F /  -3.9 °C 29.70in /  1005.6hPa North 4.0mph /  6.4km/h 12.0mph /  19.3km/h 9% 0.00in /  0mm 1116.0 W/m2
13:12 91.8 °F /  33.2 °C 22.1 °F /  -5.5 °C 29.69in /  1005.3hPa Calm   5.0mph /  8km/h 8% 0.00in /  0mm 1155.0 W/m2
13:17 92.1 °F /  33.4 °C 22.5 °F /  -5.3 °C 29.69in /  1005.3hPa NW 2.0mph /  3.2km/h 7.0mph /  11.3km/h 8% 0.00in /  0mm 1197.0 W/m2
13:22 92.7 °F /  33.7 °C 22.8 °F /  -5.1 °C 29.69in /  1005.3hPa WNW 2.9mph /  4.7km/h 8.0mph /  12.9km/h 8% 0.00in /  0mm 1204.0 W/m2
13:28 93.4 °F /  34.1 °C 23.4 °F /  -4.8 °C 29.69in /  1005.3hPa NNW 4.9mph /  7.9km/h 7.0mph /  11.3km/h 8% 0.00in /  0mm 1165.0 W/m2
13:34 93.6 °F /  34.2 °C 23.4 °F /  -4.8 °C 29.68in /  1005hPa NW 4.9mph /  7.9km/h 10.0mph /  16.1km/h 8% 0.00in /  0mm 1144.0 W/m2
13:39 93.7 °F /  34.3 °C 23.5 °F /  -4.7 °C 29.69in /  1005.3hPa North 2.0mph /  3.2km/h 12.0mph /  19.3km/h 8% 0.00in /  0mm 1104.0 W/m2
13:44 93.7 °F /  34.3 °C 23.5 °F /  -4.7 °C 29.69in /  1005.3hPa Calm   13.0mph /  20.9km/h 8% 0.00in /  0mm 1111.0 W/m2
13:49 93.6 °F /  34.2 °C 23.4 °F /  -4.8 °C 29.68in /  1005hPa NW 6.0mph /  9.7km/h 8.0mph /  12.9km/h 8% 0.00in /  0mm 1069.0 W/m2
13:54 93.2 °F /  34 °C 23.2 °F /  -4.9 °C 29.68in /  1005hPa NNE 4.0mph /  6.4km/h 10.0mph /  16.1km/h 8% 0.00in /  0mm 1072.0 W/m2
13:59 92.7 °F /  33.7 °C 25.5 °F /  -3.6 °C 29.68in /  1005hPa NNW 8.9mph /  14.3km/h 11.0mph /  17.7km/h 9% 0.00in /  0mm 1079.0 W/m2
14:04 92.7 °F /  33.7 °C 25.5 °F /  -3.6 °C 29.68in /  1005hPa NNW 4.9mph /  7.9km/h 9.0mph /  14.5km/h 9% 0.00in /  0mm 965.0 W/m2
14:09 92.5 °F /  33.6 °C 25.5 °F /  -3.6 °C 29.67in /  1004.6hPa NW 6.0mph /  9.7km/h 12.0mph /  19.3km/h 9% 0.00in /  0mm 1046.0 W/m2
14:14 92.8 °F /  33.8 °C 25.7 °F /  -3.5 °C 29.68in /  1005hPa NNW 4.9mph /  7.9km/h 13.0mph /  20.9km/h 9% 0.00in /  0mm 1023.0 W/m2
14:19 93.2 °F /  34 °C 26.1 °F /  -3.3 °C 29.67in /  1004.6hPa WSW 4.9mph /  7.9km/h 8.0mph /  12.9km/h 9% 0.00in /  0mm 944.0 W/m2
14:25 93.2 °F /  34 °C 26.1 °F /  -3.3 °C 29.68in /  1005hPa NNW 4.0mph /  6.4km/h 8.0mph /  12.9km/h 9% 0.00in /  0mm 888.0 W/m2
14:30 92.8 °F /  33.8 °C 25.7 °F /  -3.5 °C 29.67in /  1004.6hPa North 2.9mph /  4.7km/h 4.0mph /  6.4km/h 9% 0.00in /  0mm 993.0 W/m2
14:35 93.0 °F /  33.9 °C 25.9 °F /  -3.4 °C 29.67in /  1004.6hPa WNW 2.9mph /  4.7km/h 8.0mph /  12.9km/h 9% 0.00in /  0mm 995.0 W/m2
14:40 93.6 °F /  34.2 °C 23.4 °F /  -4.8 °C 29.67in /  1004.6hPa West 4.9mph /  7.9km/h 12.0mph /  19.3km/h 8% 0.00in /  0mm 594.0 W/m2
14:45 93.4 °F /  34.1 °C 23.4 °F /  -4.8 °C 29.67in /  1004.6hPa Calm   7.0mph /  11.3km/h 8% 0.00in /  0mm 976.0 W/m2
14:50 93.7 °F /  34.3 °C 23.5 °F /  -4.7 °C 29.67in /  1004.6hPa ESE 2.0mph /  3.2km/h 13.0mph /  20.9km/h 8% 0.00in /  0mm 969.0 W/m2
14:55 94.3 °F /  34.6 °C 23.9 °F /  -4.5 °C 29.66in /  1004.3hPa NNW 0.9mph /  1.4km/h 5.0mph /  8km/h 8% 0.00in /  0mm 830.0 W/m2
15:00 94.6 °F /  34.8 °C 24.3 °F /  -4.3 °C 29.66in /  1004.3hPa West 2.0mph /  3.2km/h 4.0mph /  6.4km/h 8% 0.00in /  0mm 842.0 W/m2
15:07 94.6 °F /  34.8 °C 24.3 °F /  -4.3 °C 29.66in /  1004.3hPa WNW 2.0mph /  3.2km/h 10.0mph /  16.1km/h 8% 0.00in /  0mm 854.0 W/m2
15:12 94.8 °F /  34.9 °C 24.4 °F /  -4.2 °C 29.66in /  1004.3hPa WNW 2.9mph /  4.7km/h 7.0mph /  11.3km/h 8% 0.00in /  0mm 911.0 W/m2
15:17 94.3 °F /  34.6 °C 23.9 °F /  -4.5 °C 29.65in /  1003.9hPa Calm   7.0mph /  11.3km/h 8% 0.00in /  0mm 823.0 W/m2
15:23 93.7 °F /  34.3 °C 23.5 °F /  -4.7 °C 29.65in /  1003.9hPa West 2.0mph /  3.2km/h 10.0mph /  16.1km/h 8% 0.00in /  0mm 742.0 W/m2
15:28 93.4 °F /  34.1 °C 23.4 °F /  -4.8 °C 29.65in /  1003.9hPa WNW 0.9mph /  1.4km/h 7.0mph /  11.3km/h 8% 0.00in /  0mm 865.0 W/m2
15:33 93.9 °F /  34.4 °C 23.7 °F /  -4.6 °C 29.65in /  1003.9hPa Calm   10.0mph /  16.1km/h 8% 0.00in /  0mm 870.0 W/m2
15:38 94.6 °F /  34.8 °C 21.0 °F /  -6.1 °C 29.65in /  1003.9hPa West 2.0mph /  3.2km/h 5.0mph /  8km/h 7% 0.00in /  0mm 752.0 W/m2
15:43 94.8 °F /  34.9 °C 21.2 °F /  -6 °C 29.65in /  1003.9hPa East 10.1mph /  16.3km/h 10.1mph /  16.3km/h 7% 0.00in /  0mm 541.0 W/m2
15:49 94.6 °F /  34.8 °C 21.0 °F /  -6.1 °C 29.65in /  1003.9hPa WNW 4.0mph /  6.4km/h 9.0mph /  14.5km/h 7% 0.00in /  0mm 640.0 W/m2
15:52 94.6 °F /  34.8 °C 21.0 °F /  -6.1 °C 29.64in /  1003.6hPa WNW 2.9mph /  4.7km/h 3.0mph /  4.8km/h 7% 0.00in /  0mm 712.0 W/m2
15:57 94.5 °F /  34.7 °C 21.0 °F /  -6.1 °C 29.64in /  1003.6hPa West 4.9mph /  7.9km/h 11.0mph /  17.7km/h 7% 0.00in /  0mm 770.0 W/m2
16:02 94.5 °F /  34.7 °C 21.0 °F /  -6.1 °C 29.64in /  1003.6hPa NNW 4.9mph /  7.9km/h 5.0mph /  8km/h 7% 0.00in /  0mm 758.0 W/m2
16:07 94.5 °F /  34.7 °C 21.0 °F /  -6.1 °C 29.65in /  1003.9hPa NNW 2.9mph /  4.7km/h 12.0mph /  19.3km/h 7% 0.00in /  0mm 737.0 W/m2
16:12 94.5 °F /  34.7 °C 21.0 °F /  -6.1 °C 29.64in /  1003.6hPa NNW 2.0mph /  3.2km/h 7.0mph /  11.3km/h 7% 0.00in /  0mm 722.0 W/m2
16:17 94.6 °F /  34.8 °C 17.4 °F /  -8.1 °C 29.64in /  1003.6hPa West 2.0mph /  3.2km/h 4.0mph /  6.4km/h 6% 0.00in /  0mm 708.0 W/m2
16:22 94.1 °F /  34.5 °C 17.1 °F /  -8.3 °C 29.64in /  1003.6hPa WSW 4.0mph /  6.4km/h 5.0mph /  8km/h 6% 0.00in /  0mm 643.0 W/m2
16:27 93.4 °F /  34.1 °C 20.1 °F /  -6.6 °C 29.64in /  1003.6hPa Calm   4.0mph /  6.4km/h 7% 0.00in /  0mm 519.0 W/m2
16:32 93.4 °F /  34.1 °C 20.1 °F /  -6.6 °C 29.63in /  1003.3hPa North 4.0mph /  6.4km/h 6.0mph /  9.7km/h 7% 0.00in /  0mm 668.0 W/m2
16:37 93.9 °F /  34.4 °C 20.5 °F /  -6.4 °C 29.64in /  1003.6hPa North 6.0mph /  9.7km/h 8.0mph /  12.9km/h 7% 0.00in /  0mm 617.0 W/m2
16:43 94.1 °F /  34.5 °C 17.1 °F /  -8.3 °C 29.64in /  1003.6hPa NNW 8.9mph /  14.3km/h 11.0mph /  17.7km/h 6% 0.00in /  0mm 506.0 W/m2
16:48 93.7 °F /  34.3 °C 20.5 °F /  -6.4 °C 29.64in /  1003.6hPa WSW 0.9mph /  1.4km/h 5.0mph /  8km/h 7% 0.00in /  0mm 606.0 W/m2
16:53 93.9 °F /  34.4 °C 20.5 °F /  -6.4 °C 29.64in /  1003.6hPa WNW 0.9mph /  1.4km/h 5.0mph /  8km/h 7% 0.00in /  0mm 615.0 W/m2
16:58 94.5 °F /  34.7 °C 21.0 °F /  -6.1 °C 29.63in /  1003.3hPa North 6.0mph /  9.7km/h 6.0mph /  9.7km/h 7% 0.00in /  0mm 490.0 W/m2
17:03 94.6 °F /  34.8 °C 21.0 °F /  -6.1 °C 29.64in /  1003.6hPa NNW 4.9mph /  7.9km/h 6.0mph /  9.7km/h 7% 0.00in /  0mm 366.0 W/m2
17:08 93.9 °F /  34.4 °C 20.5 °F /  -6.4 °C 29.63in /  1003.3hPa West 0.9mph /  1.4km/h 9.0mph /  14.5km/h 7% 0.00in /  0mm 476.0 W/m2
17:14 93.9 °F /  34.4 °C 20.5 °F /  -6.4 °C 29.63in /  1003.3hPa West 2.0mph /  3.2km/h 8.0mph /  12.9km/h 7% 0.00in /  0mm 480.0 W/m2
17:20 94.3 °F /  34.6 °C 20.8 °F /  -6.2 °C 29.63in /  1003.3hPa North 2.9mph /  4.7km/h 6.0mph /  9.7km/h 7% 0.00in /  0mm 346.0 W/m2
17:25 93.6 °F /  34.2 °C 20.3 °F /  -6.5 °C 29.63in /  1003.3hPa WNW 0.9mph /  1.4km/h 5.0mph /  8km/h 7% 0.00in /  0mm 418.0 W/m2
17:30 93.6 °F /  34.2 °C 20.3 °F /  -6.5 °C 29.63in /  1003.3hPa West 0.9mph /  1.4km/h 8.0mph /  12.9km/h 7% 0.00in /  0mm 466.0 W/m2
17:35 93.4 °F /  34.1 °C 20.1 °F /  -6.6 °C 29.63in /  1003.3hPa West 0.9mph /  1.4km/h 9.0mph /  14.5km/h 7% 0.00in /  0mm 397.0 W/m2
17:40 93.4 °F /  34.1 °C 16.5 °F /  -8.6 °C 29.63in /  1003.3hPa NNW 4.0mph /  6.4km/h 7.0mph /  11.3km/h 6% 0.00in /  0mm 411.0 W/m2
17:45 93.2 °F /  34 °C 16.5 °F /  -8.6 °C 29.64in /  1003.6hPa WNW 2.0mph /  3.2km/h 9.0mph /  14.5km/h 6% 0.00in /  0mm 367.0 W/m2
17:51 92.7 °F /  33.7 °C 19.6 °F /  -6.9 °C 29.64in /  1003.6hPa NW 0.9mph /  1.4km/h 3.0mph /  4.8km/h 7% 0.00in /  0mm 299.0 W/m2
17:56 92.8 °F /  33.8 °C 19.8 °F /  -6.8 °C 29.64in /  1003.6hPa WSW 2.0mph /  3.2km/h 5.0mph /  8km/h 7% 0.00in /  0mm 322.0 W/m2
18:02 92.7 °F /  33.7 °C 16.0 °F /  -8.9 °C 29.64in /  1003.6hPa Calm   10.0mph /  16.1km/h 6% 0.00in /  0mm 272.0 W/m2
18:07 92.1 °F /  33.4 °C 15.6 °F /  -9.1 °C 29.64in /  1003.6hPa North 0.9mph /  1.4km/h 7.0mph /  11.3km/h 6% 0.00in /  0mm 281.0 W/m2
18:12 91.8 °F /  33.2 °C 15.4 °F /  -9.2 °C 29.65in /  1003.9hPa West 4.9mph /  7.9km/h 11.0mph /  17.7km/h 6% 0.00in /  0mm 216.0 W/m2
18:17 90.3 °F /  32.4 °C 14.4 °F /  -9.8 °C 29.64in /  1003.6hPa WSW 4.9mph /  7.9km/h 10.0mph /  16.1km/h 6% 0.00in /  0mm 197.0 W/m2
18:22 89.4 °F /  31.9 °C 13.8 °F /  -10.1 °C 29.64in /  1003.6hPa WSW 4.0mph /  6.4km/h 8.0mph /  12.9km/h 6% 0.00in /  0mm 149.0 W/m2
18:27 88.9 °F /  31.6 °C 16.9 °F /  -8.4 °C 29.65in /  1003.9hPa WNW 2.9mph /  4.7km/h 13.0mph /  20.9km/h 7% 0.00in /  0mm 148.0 W/m2
18:32 87.6 °F /  30.9 °C 16.0 °F /  -8.9 °C 29.65in /  1003.9hPa SW 2.9mph /  4.7km/h 12.0mph /  19.3km/h 7% 0.00in /  0mm 86.0 W/m2
18:37 86.7 °F /  30.4 °C 15.3 °F /  -9.3 °C 29.65in /  1003.9hPa WSW 6.9mph /  11.1km/h 11.0mph /  17.7km/h 7% 0.00in /  0mm 26.0 W/m2
18:42 86.2 °F /  30.1 °C 14.9 °F /  -9.5 °C 29.65in /  1003.9hPa West 10.1mph /  16.3km/h 14.0mph /  22.5km/h 7% 0.00in /  0mm 21.0 W/m2
18:47 85.3 °F /  29.6 °C 14.2 °F /  -9.9 °C 29.65in /  1003.9hPa West 2.9mph /  4.7km/h 10.0mph /  16.1km/h 7% 0.00in /  0mm 21.0 W/m2
18:52 84.7 °F /  29.3 °C 13.8 °F /  -10.1 °C 29.66in /  1004.3hPa West 8.1mph /  13km/h 15.0mph /  24.1km/h 7% 0.00in /  0mm 21.0 W/m2
18:59 84.6 °F /  29.2 °C 13.6 °F /  -10.2 °C 29.66in /  1004.3hPa West 4.9mph /  7.9km/h 15.0mph /  24.1km/h 7% 0.00in /  0mm 23.0 W/m2
19:04 83.7 °F /  28.7 °C 13.1 °F /  -10.5 °C 29.66in /  1004.3hPa West 4.9mph /  7.9km/h 11.0mph /  17.7km/h 7% 0.00in /  0mm 23.0 W/m2
19:09 83.3 °F /  28.5 °C 12.7 °F /  -10.7 °C 29.67in /  1004.6hPa West 6.9mph /  11.1km/h 7.0mph /  11.3km/h 7% 0.00in /  0mm 16.0 W/m2
19:14 82.8 °F /  28.2 °C 15.4 °F /  -9.2 °C 29.67in /  1004.6hPa West 2.0mph /  3.2km/h 6.0mph /  9.7km/h 8% 0.00in /  0mm 9.0 W/m2
19:19 82.4 °F /  28 °C 15.3 °F /  -9.3 °C 29.67in /  1004.6hPa SW 4.9mph /  7.9km/h 10.0mph /  16.1km/h 8% 0.00in /  0mm 5.0 W/m2
19:24 82.0 °F /  27.8 °C 17.6 °F /  -8 °C 29.68in /  1005hPa West 13.0mph /  20.9km/h 13.0mph /  20.9km/h 9% 0.00in /  0mm 0.0 W/m2
19:25 81.9 °F /  27.7 °C 17.4 °F /  -8.1 °C 29.68in /  1005hPa West 2.0mph /  3.2km/h 13.0mph /  20.9km/h 9% 0.00in /  0mm 0.0 W/m2
19:30 81.5 °F /  27.5 °C 17.2 °F /  -8.2 °C 29.68in /  1005hPa West 2.9mph /  4.7km/h 9.0mph /  14.5km/h 9% 0.00in /  0mm 0.0 W/m2
19:35 81.1 °F /  27.3 °C 19.4 °F /  -7 °C 29.69in /  1005.3hPa WSW 6.9mph /  11.1km/h 8.0mph /  12.9km/h 10% 0.00in /  0mm 0.0 W/m2
19:40 80.8 °F /  27.1 °C 21.4 °F /  -5.9 °C 29.69in /  1005.3hPa WSW 4.0mph /  6.4km/h 7.0mph /  11.3km/h 11% 0.00in /  0mm 0.0 W/m2
19:45 80.4 °F /  26.9 °C 21.0 °F /  -6.1 °C 29.70in /  1005.6hPa WNW 2.9mph /  4.7km/h 11.0mph /  17.7km/h 11% 0.00in /  0mm 0.0 W/m2
19:51 80.1 °F /  26.7 °C 20.8 °F /  -6.2 °C 29.70in /  1005.6hPa WSW 2.0mph /  3.2km/h 8.0mph /  12.9km/h 11% 0.00in /  0mm 0.0 W/m2
19:56 79.9 °F /  26.6 °C 20.7 °F /  -6.3 °C 29.70in /  1005.6hPa WNW 4.0mph /  6.4km/h 9.0mph /  14.5km/h 11% 0.00in /  0mm 0.0 W/m2
20:01 79.5 °F /  26.4 °C 22.5 °F /  -5.3 °C 29.70in /  1005.6hPa West 2.9mph /  4.7km/h 7.0mph /  11.3km/h 12% 0.00in /  0mm 0.0 W/m2
20:06 79.3 °F /  26.3 °C 22.3 °F /  -5.4 °C 29.70in /  1005.6hPa SW 0.9mph /  1.4km/h 8.0mph /  12.9km/h 12% 0.00in /  0mm 0.0 W/m2
20:11 79.0 °F /  26.1 °C 23.9 °F /  -4.5 °C 29.71in /  1006hPa West 2.9mph /  4.7km/h 8.0mph /  12.9km/h 13% 0.00in /  0mm 0.0 W/m2
20:16 78.8 °F /  26 °C 23.7 °F /  -4.6 °C 29.71in /  1006hPa WNW 8.1mph /  13km/h 8.1mph /  13km/h 13% 0.00in /  0mm 0.0 W/m2
20:21 78.4 °F /  25.8 °C 25.3 °F /  -3.7 °C 29.71in /  1006hPa WNW 8.9mph /  14.3km/h 9.0mph /  14.5km/h 14% 0.00in /  0mm 0.0 W/m2
20:26 78.3 °F /  25.7 °C 25.2 °F /  -3.8 °C 29.72in /  1006.3hPa SW 2.9mph /  4.7km/h 7.0mph /  11.3km/h 14% 0.00in /  0mm 0.0 W/m2
20:31 78.1 °F /  25.6 °C 25.0 °F /  -3.9 °C 29.72in /  1006.3hPa NW 2.0mph /  3.2km/h 7.0mph /  11.3km/h 14% 0.00in /  0mm 0.0 W/m2
20:36 77.7 °F /  25.4 °C 26.4 °F /  -3.1 °C 29.72in /  1006.3hPa Calm   6.0mph /  9.7km/h 15% 0.00in /  0mm 0.0 W/m2
20:42 77.5 °F /  25.3 °C 26.2 °F /  -3.2 °C 29.72in /  1006.3hPa Calm   1.0mph /  1.6km/h 15% 0.00in /  0mm 0.0 W/m2
20:47 77.4 °F /  25.2 °C 26.1 °F /  -3.3 °C 29.72in /  1006.3hPa Calm   3.0mph /  4.8km/h 15% 0.00in /  0mm 0.0 W/m2
20:52 77.2 °F /  25.1 °C 25.9 °F /  -3.4 °C 29.72in /  1006.3hPa Calm   3.0mph /  4.8km/h 15% 0.00in /  0mm 0.0 W/m2
20:57 76.8 °F /  24.9 °C 25.7 °F /  -3.5 °C 29.72in /  1006.3hPa West 2.0mph /  3.2km/h 3.0mph /  4.8km/h 15% 0.00in /  0mm 0.0 W/m2
21:02 76.6 °F /  24.8 °C 27.1 °F /  -2.7 °C 29.73in /  1006.7hPa WNW 2.0mph /  3.2km/h 3.0mph /  4.8km/h 16% 0.00in /  0mm 0.0 W/m2
21:07 76.5 °F /  24.7 °C 27.0 °F /  -2.8 °C 29.73in /  1006.7hPa Calm   3.0mph /  4.8km/h 16% 0.00in /  0mm 0.0 W/m2
21:12 76.3 °F /  24.6 °C 28.2 °F /  -2.1 °C 29.73in /  1006.7hPa WSW 2.9mph /  4.7km/h 7.0mph /  11.3km/h 17% 0.00in /  0mm 0.0 W/m2
21:17 75.9 °F /  24.4 °C 28.0 °F /  -2.2 °C 29.73in /  1006.7hPa SSW 0.9mph /  1.4km/h 3.0mph /  4.8km/h 17% 0.00in /  0mm 0.0 W/m2
21:23 75.9 °F /  24.4 °C 29.3 °F /  -1.5 °C 29.73in /  1006.7hPa Calm     18% 0.00in /  0mm 0.0 W/m2
21:29 75.7 °F /  24.3 °C 29.3 °F /  -1.5 °C 29.73in /  1006.7hPa Calm   1.0mph /  1.6km/h 18% 0.00in /  0mm 0.0 W/m2
21:34 75.6 °F /  24.2 °C 29.1 °F /  -1.6 °C 29.74in /  1007hPa Calm   2.0mph /  3.2km/h 18% 0.00in /  0mm 0.0 W/m2
21:39 75.2 °F /  24 °C 28.8 °F /  -1.8 °C 29.73in /  1006.7hPa WNW 2.9mph /  4.7km/h 3.0mph /  4.8km/h 18% 0.00in /  0mm 0.0 W/m2
21:44 75.0 °F /  23.9 °C 28.6 °F /  -1.9 °C 29.74in /  1007hPa Calm   1.0mph /  1.6km/h 18% 0.00in /  0mm 0.0 W/m2
21:49 74.8 °F /  23.8 °C 29.8 °F /  -1.2 °C 29.74in /  1007hPa Calm   2.0mph /  3.2km/h 19% 0.00in /  0mm 0.0 W/m2
21:54 74.7 °F /  23.7 °C 29.7 °F /  -1.3 °C 29.75in /  1007.3hPa Calm   3.0mph /  4.8km/h 19% 0.00in /  0mm 0.0 W/m2
22:00 74.5 °F /  23.6 °C 30.7 °F /  -0.7 °C 29.75in /  1007.3hPa Calm   1.0mph /  1.6km/h 20% 0.00in /  0mm 0.0 W/m2
22:05 74.3 °F /  23.5 °C 30.6 °F /  -0.8 °C 29.75in /  1007.3hPa Calm   2.0mph /  3.2km/h 20% 0.00in /  0mm 0.0 W/m2
22:11 74.1 °F /  23.4 °C 31.6 °F /  -0.2 °C 29.75in /  1007.3hPa West 0.9mph /  1.4km/h 2.0mph /  3.2km/h 21% 0.00in /  0mm 0.0 W/m2
22:16 73.9 °F /  23.3 °C 31.5 °F /  -0.3 °C 29.75in /  1007.3hPa Calm   1.0mph /  1.6km/h 21% 0.00in /  0mm 0.0 W/m2
22:21 73.8 °F /  23.2 °C 31.5 °F /  -0.3 °C 29.75in /  1007.3hPa WSW 0.9mph /  1.4km/h 1.0mph /  1.6km/h 21% 0.00in /  0mm 0.0 W/m2
22:26 73.8 °F /  23.2 °C 31.5 °F /  -0.3 °C 29.75in /  1007.3hPa Calm     21% 0.00in /  0mm 0.0 W/m2
22:31 73.6 °F /  23.1 °C 31.3 °F /  -0.4 °C 29.75in /  1007.3hPa Calm   2.0mph /  3.2km/h 21% 0.00in /  0mm 0.0 W/m2
22:36 73.6 °F /  23.1 °C 31.3 °F /  -0.4 °C 29.75in /  1007.3hPa Calm   2.0mph /  3.2km/h 21% 0.00in /  0mm 0.0 W/m2
22:41 73.4 °F /  23 °C 31.1 °F /  -0.5 °C 29.75in /  1007.3hPa Calm   1.0mph /  1.6km/h 21% 0.00in /  0mm 0.0 W/m2
22:46 73.4 °F /  23 °C 31.1 °F /  -0.5 °C 29.75in /  1007.3hPa Calm     21% 0.00in /  0mm 0.0 W/m2
22:51 73.2 °F /  22.9 °C 30.9 °F /  -0.6 °C 29.76in /  1007.7hPa Calm   3.0mph /  4.8km/h 21% 0.00in /  0mm 0.0 W/m2
22:56 73.0 °F /  22.8 °C 30.7 °F /  -0.7 °C 29.76in /  1007.7hPa Calm   2.0mph /  3.2km/h 21% 0.00in /  0mm 0.0 W/m2
23:01 72.9 °F /  22.7 °C 30.6 °F /  -0.8 °C 29.76in /  1007.7hPa North 2.0mph /  3.2km/h 2.0mph /  3.2km/h 21% 0.00in /  0mm 0.0 W/m2
23:07 72.9 °F /  22.7 °C 30.6 °F /  -0.8 °C 29.76in /  1007.7hPa Calm   1.0mph /  1.6km/h 21% 0.00in /  0mm 0.0 W/m2
23:12 72.7 °F /  22.6 °C 30.6 °F /  -0.8 °C 29.76in /  1007.7hPa NNW 0.9mph /  1.4km/h 1.0mph /  1.6km/h 21% 0.00in /  0mm 0.0 W/m2
23:17 72.5 °F /  22.5 °C 30.4 °F /  -0.9 °C 29.76in /  1007.7hPa Calm   4.0mph /  6.4km/h 21% 0.00in /  0mm 0.0 W/m2
23:22 72.3 °F /  22.4 °C 30.2 °F /  -1 °C 29.76in /  1007.7hPa Calm   1.0mph /  1.6km/h 21% 0.00in /  0mm 0.0 W/m2
23:27 72.3 °F /  22.4 °C 30.2 °F /  -1 °C 29.76in /  1007.7hPa Calm   1.0mph /  1.6km/h 21% 0.00in /  0mm 0.0 W/m2
23:32 72.1 °F /  22.3 °C 31.1 °F /  -0.5 °C 29.76in /  1007.7hPa Calm   3.0mph /  4.8km/h 22% 0.00in /  0mm 0.0 W/m2
23:37 72.0 °F /  22.2 °C 31.1 °F /  -0.5 °C 29.76in /  1007.7hPa Calm   2.0mph /  3.2km/h 22% 0.00in /  0mm 0.0 W/m2
23:43 72.0 °F /  22.2 °C 29.8 °F /  -1.2 °C 29.76in /  1007.7hPa North 0.9mph /  1.4km/h 3.0mph /  4.8km/h 21% 0.00in /  0mm 0.0 W/m2
23:48 72.0 °F /  22.2 °C 29.8 °F /  -1.2 °C 29.76in /  1007.7hPa Calm     21% 0.00in /  0mm 0.0 W/m2
23:54 72.0 °F /  22.2 °C 31.1 °F /  -0.5 °C 29.76in /  1007.7hPa Calm     22% 0.00in /  0mm 0.0 W/m2
23:59 71.8 °F /  22.1 °C 30.9 °F /  -0.6 °C 29.76in /  1007.7hPa Calm     22% 0.00in /  0mm 0.0 W/m2
Olympia, Windhoek, Namibia
Compliments of Weather Underground - 3.25 mb